Regional Weather Roundup
Issued by NWS

Home | Current Version | Previous Version | Graphics & Text | Print | Product List | Glossary On
Versions: 1 2 3 4 5 6 7 8 9 10 11 12 13 14 15 16 17 18 19 20 21 22 23 24 25 26 27 28 29 30 31 32 33 34 35 36 37 38 39 40 41 42 43 44 45 46 47 48 49 50
000
ASUS43 KLOT 231202
RWRIL

ILLINOIS REGIONAL WEATHER ROUNDUP
NATIONAL WEATHER SERVICE CHICAGO/ROMEOVILLE IL
700 AM CDT SAT MAY 23 2015

NOTE: "FAIR" INDICATES FEW OR NO CLOUDS BELOW 12,000 FEET WITH NO
SIGNIFICANT WEATHER AND/OR OBSTRUCTIONS TO VISIBILITY.

* THESE STATIONS ARE NOT UNDER NWS QUALITY CONTROL. THEY ALSO MAY NOT
  REPORT WEATHER SUCH AS PRECIPITATION OR FOG.

ILZ001-002-007-009-015-016-024-231300-
NORTHWEST ILLINOIS

CITY           SKY/WX    TMP DP  RH WIND       PRES   REMARKS
MOLINE         SUNNY     56  48  74 CALM      30.29R
6HR MIN TEMP:  50; 6HR MAX TEMP:  61;

STERLING*      CLOUDY    57  37  47 E7        30.31S
$$

ILZ003-004-008-010-011-017-018-231300-
NORTH CENTRAL ILLINOIS

CITY           SKY/WX    TMP DP  RH WIND       PRES   REMARKS
ROCKFORD       PTSUNNY   53  41  63 S3        30.34S
6HR MIN TEMP:  45; 6HR MAX TEMP:  53;

$$

ILZ005-006-012>014-019>023-231300-
NORTHEAST ILLINOIS

CITY           SKY/WX    TMP DP  RH WIND       PRES   REMARKS
CHICAGO-OHARE  MOSUNNY   53  40  61 S6        30.34R
6HR MIN TEMP:  46; 6HR MAX TEMP:  53;

CHICAGO-MIDWAY MOSUNNY   58  35  42 SE7       30.34R
6HR MIN TEMP:  53; 6HR MAX TEMP:  58;

AURORA         PTSUNNY   53  42  66 CALM      30.35R
6HR MIN TEMP:  44; 6HR MAX TEMP:  53;

WAUKEGAN       SUNNY     51  40  65 CALM      30.34R
6HR MIN TEMP:  40; 6HR MAX TEMP:  51;

DUPAGE AIRPORT MOSUNNY   52  43  71 CALM      30.33R
6HR MIN TEMP:  41; 6HR MAX TEMP:  52;

WHEELING       SUNNY     49  41  74 CALM      30.36R
6HR MIN TEMP:  43; 6HR MAX TEMP:  49;

NORTHERLY ISL    N/A     55  44  66 S1          N/A
$$

LMZ740>746-231300-
SOUTHERN LAKE MICHIGAN

STATION/POSITION SKY/WX   TEMP    WIND        PRES    VSBY  WAVE
                          AIR SEA DIR/SP/G                  HT/PER
                          (F)     (DEG/KT/KT) (MB)    (MI)  (FT/S)
SOUTHERN BUOY              43 38  160/  6/  6 1028.2R         0
HARRISON CRIB              54     150/ 11/ 13   N/A
BURNHAM HARBOR             53     110/  2/  4   N/A
CALUMET HARBOR             55     130/  4/  6   N/A
BURNS HARBOR               58     140/  9/ 16 1027.4R
MICHIGAN CITY              54     120/ 10/ 12   N/A
MICHIGAN CITY 6N           54 51  160/  8/ 10   N/A           1/ 2
ST. JOSEPH                 53 53  160/ 10/ 12   N/A           1/ 2
$$

ILZ025>027-034>036-040-047-049-050-058-095>099-231300-
WEST-CENTRAL ILLINOIS

CITY           SKY/WX    TMP DP  RH WIND       PRES   REMARKS
QUINCY         MOSUNNY   58  51  78 S3        30.30R
$$

ILZ028>032-037-038-041>044-048-051>054-059>061-231300-
CENTRAL ILLINOIS

CITY           SKY/WX    TMP DP  RH WIND       PRES   REMARKS
DECATUR        MOSUNNY   57  51  80 SW6       30.33R
PEORIA         SUNNY     60  47  61 E3        30.30S
6HR MIN TEMP:  57; 6HR MAX TEMP:  64;

SPRINGFIELD    SUNNY     59  55  87 CALM      30.32R
6HR MIN TEMP:  54; 6HR MAX TEMP:  64;

TAYLORVILLE    NOT AVBL
$$

ILZ033-039-045-046-055>057-062-063-231300-
EAST-CENTRAL ILLINOIS

CITY           SKY/WX    TMP DP  RH WIND       PRES   REMARKS
CHAMPAIGN      PTSUNNY   63  50  62 S5        30.33R
MATTOON        PTSUNNY   62  54  74 SW6       30.32R
$$

ILZ079-100>102-231300-
SOUTHWEST ILLINOIS

CITY           SKY/WX    TMP DP  RH WIND       PRES   REMARKS
ALTON          CLOUDY    61  61 100 CALM      30.32R
BELLEVILLE     PTSUNNY   60  60  99 CALM      30.31R
CAHOKIA*       CLOUDY    61  57  87 CALM      30.31R
$$

ILZ064>066-069>071-074>076-080>082-084>086-088>090-092>094-231300-
SOUTH-CENTRAL ILLINOIS

CITY           SKY/WX    TMP DP  RH WIND       PRES   REMARKS
CARBONDALE     CLOUDY    59  56  89 S3        30.33R
6HR MIN TEMP:  57; 6HR MAX TEMP:  59;

MARION         PTSUNNY   61  57  88 SE6       30.34R
MT. VERNON     PTSUNNY   57  54  88 CALM      30.34R
$$

ILZ067-068-072-073-078-083-087-091-231300-
SOUTHEAST ILLINOIS

CITY           SKY/WX    TMP DP  RH WIND       PRES   REMARKS
LAWRENCEVILLE  PTSUNNY   61  57  87 CALM      30.35R
$$

ABBREVIATIONS USED IN REMARKS
   TC - TEMPERATURE IN CELSIUS
  WCI - WIND CHILL INDEX
   HX - HEAT INDEX
  VSB - VISIBILITY
$$




USA.gov is the U.S. government's official web portal to all federal, state and local government web resources and services.